This is the latest recevied weather packets stored in our database for station/object K8DJB-1. If no packets are shown the sender has not sent any weather packets the latest 10 day(s).
| Time | Temp. | Humidity | Pressure | Rain* | Wind** | Luminosity | Snow |
|---|---|---|---|---|---|---|---|
| 1777036129 | 20.56° C | 65% | 1004 hPa | 0 mm | - | - | - |
| 1777035762 | 20.56° C | 65% | 1004.1 hPa | 0 mm | - | - | - |
| 1777035462 | 20° C | 65% | 1004.2 hPa | 0 mm | - | - | - |
| 1777035162 | 20° C | 67% | 1004.3 hPa | 0 mm | - | - | - |
| 1777034862 | 20° C | 67% | 1004.3 hPa | 0 mm | - | - | - |
| 1777034562 | 19.44° C | 67% | 1004.4 hPa | 0 mm | - | - | - |
| 1777034262 | 19.44° C | 67% | 1004.6 hPa | 0 mm | - | - | - |
| 1777033962 | 18.89° C | 68% | 1004.7 hPa | 0 mm | - | - | - |
| 1777033662 | 18.89° C | 67% | 1004.7 hPa | 0 mm | - | - | - |
| 1777033362 | 18.33° C | 67% | 1004.7 hPa | 0 mm | - | - | - |
| 1777033062 | 18.33° C | 68% | 1004.8 hPa | 0 mm | - | - | - |
| 1777032762 | 18.33° C | 68% | 1004.9 hPa | 0 mm | - | - | - |
| 1777032462 | 18.33° C | 67% | 1004.9 hPa | 0 mm | - | - | - |
| 1777032163 | 18.33° C | 68% | 1004.9 hPa | 0 mm | - | - | - |
| 1777031864 | 18.33° C | 68% | 1005 hPa | 0 mm | - | - | - |
| 1777031562 | 18.33° C | 67% | 1005 hPa | 0 mm | - | - | - |
| 1777031262 | 18.33° C | 67% | 1005 hPa | 0 mm | - | - | - |
| 1777030962 | 18.33° C | 67% | 1005 hPa | 0 mm | - | - | - |
| 1777030391 | 17.78° C | 67% | 1005 hPa | 0 mm | - | - | - |
| 1777030091 | 17.78° C | 67% | 1005 hPa | 0 mm | - | - | - |
| 1777029791 | 17.78° C | 67% | 1004.9 hPa | 0 mm | - | - | - |
| 1777029191 | 17.78° C | 66% | 1004.7 hPa | 0 mm | - | - | - |
| 1777028891 | 18.33° C | 66% | 1004.7 hPa | 0 mm | - | - | - |
| 1777028591 | 17.78° C | 65% | 1004.7 hPa | 0 mm | - | - | - |
| 1777028291 | 17.78° C | 66% | 1004.8 hPa | 0 mm | - | - | - |
* Rain latest hour (hover to see other rain measurements)
** Current wind speed in m/s (hover to see current wind gust speed)